CAPE
817 985 1235 1245 1402 1522 1968 2004 1967 2274 2413 2312 2227 2074 1838 1576 1748 2108 1926 1660 1865 1271 1021 1554 1636 2108 1911 2016 2082 2306 2567 2618 2569 2109 1959 2307 2172 1973 1863 1712 2477 1392 1802
869 1067 1611 1785 1632 1889 1939 1980 2047 2276 2184 2385 2102 1836 1776 2177 2167 1843 1622 2119 1564 1179 920 1551 1352 1736 1801 1722 1992 1787 2176 2115 2584 2423 2440 2216 2013 2054 1969 2136 2668 1726 1687
828 873 1270 1962 2000 2054 2053 2006 1960 1932 2072 2154 2145 2163 2382 2156 2249 1963 1535 1894 1466 1614 1349 1334 1663 1491 1400 1923 2029 2029 2285 2142 2113 1876 2197 1880 1923 2207 2116 1794 2088 1922 1893
708 792 901 2273 2508 2093 2147 2335 2285 2302 2335 2368 2188 2028 2125 2177 2069 1894 1729 1793 1586 1671 1579 1388 1538 1540 1542 1798 2003 2248 2282 2006 1833 1512 1677 1724 1480 2113 2009 2051 1892 1647 1322
448 409 1280 2311 2444 2354 2277 2297 2243 2243 2266 2177 2140 2057 1979 1939 1858 1890 1681 1716 1653 1859 1635 1636 1500 1594 1802 1490 1989 1884 1799 1713 1848 1919 1930 2566 1511 2021 1892 1967 1793 1618 2086
504 470 1744 1992 2113 2139 2204 2147 2159 2169 2124 2200 2122 2023 1852 1809 1799 1708 1726 1650 1576 1711 1721 1706 1589 1502 1430 1551 1433 1550 1434 1457 1922 2049 2056 1860 1878 1989 2027 2071 2067 1090 1937
457 525 1492 2360 2004 2016 2181 2128 2108 2114 1881 2090 2034 2003 1869 1857 1640 1622 1578 1691 1618 1614 1495 1473 1569 1655 1509 1623 1614 1054 1131 1324 2126 2191 1673 1796 1888 2432 1924 2101 1957 1709 1723
188 425 734 1979 1877 1931 1887 1973 2112 2025 2012 1931 1938 1887 1798 1908 2169 2057 1876 1646 1588 1683 1400 1371 1429 1534 1643 1593 1613 981 1067 1164 1584 1843 2017 1704 2110 2291 2105 1936 1746 1176 1086
128 420 789 1534 1837 1762 1952 1904 2050 2050 2030 2132 2131 2072 2236 1941 1908 1828 1638 1589 1393 1135 1401 1388 1195 1539 1730 1846 1541 1097 918 1342 1747 1421 1125 1223 2059 2183 2069 1818 1342 1629 1739
211 319 458 941 1424 947 1858 1802 1975 2054 1944 1762 1662 1985 2064 1705 1239 1074 2002 1625 1272 1150 1383 1201 1311 1462 1693 1740 1469 1180 1491 1692 1013 1397 915 1449 2494 1988 1958 1961 1720 1684 1580
86 313 274 523 1139 904 1677 1919 1959 2063 1999 1872 1881 1936 1849 1115 1399 1358 1668 1470 1255 1130 1166 1186 1236 1523 1711 1727 1528 1482 1796 735 724 929 1136 1986 2294 1905 1911 1845 1754 1680 1721
63 156 198 413 529 673 671 1502 1598 1526 1198 1319 1032 1704 1666 1706 1733 904 1256 1420 1448 1389 1324 1338 1210 703 1670 1178 1367 1642 1333 544 490 928 1191 1671 2057 1935 1885 1834 1662 1580 1180
36 155 81 352 465 407 1048 1211 909 1425 937 1283 1160 1121 889 875 1106 693 1186 1208 1305 1679 1085 1193 1327 1385 1442 1113 1339 1132 356 270 578 649 1283 2303 1645 1882 1765 1686 1515 1428 1538
26 64 66 297 591 569 459 814 1176 786 537 767 1144 1312 1477 1903 1438 1729 1617 1294 1414 1022 1202 1108 1132 1114 1211 837 1031 765 485 254 298 545 1426 1998 1644 1653 1656 1692 1571 1592 1535
17 39 117 344 723 1060 1322 2175 759 490 419 962 1237 1443 1438 1753 1457 1948 976 835 2148 1269 917 1093 639 1102 1262 1131 1141 785 520 370 406 447 587 1083 1163 1495 1548 1524 1546 1441 1325
12 24 182 400 804 954 1610 2047 754 437 2031 1008 1418 1137 1677 1750 2167 1217 2006 1546 1105 525 996 1276 1686 1296 1587 946 1134 1136 763 653 1139 1127 591 1076 933 824 959 1154 1463 1332 1042
6 14 196 420 684 993 2136 1069 800 837 1011 1337 1598 1695 1477 2101 1699 2499 1975 554 1057 1402 2049 1159 808 76 395 918 890 1160 470 668 764 1358 1093 1065 1091 899 682 485 481 452 465
13 6 140 154 582 882 1219 1187 917 672 1049 1244 1275 1519 1395 1652 1705 2328 1319 1461 1168 923 975 608 200 1100 100 435 975 742 566 444 670 619 1065 1227 1580 1239 1260 1170 895 808 873
48 31 123 247 496 837 1204 1169 1244 1122 1485 1462 2165 1774 1733 1965 1881 2232 1464 1954 1949 1569 1082 523 43 841 412 54 134 249 1411 181 848 529 454 887 897 1106 1398 1815 1571 1249 861
52 144 254 268 1141 1510 1291 1188 850 950 1304 1661 1542 2026 1973 2029 1883 2131 1565 1515 1376 1091 405 1654 578 1176 1164 470 582 299 575 172 88 305 194 212 385 492 1088 1536 1246 977 1394
94 273 433 882 2143 1114 809 690 697 813 998 1774 1641 1673 1759 1877 1916 2109 1736 1863 1562 1540 1140 759 730 482 48 1054 528 75 101 83 237 165 91 135 63 123 93 431 611 885 1218
175 452 1238 1374 2284 1359 794 1221 934 1281 787 811 814 1714 1773 1628 2016 1863 2386 2055 1971 1566 1205 1429 1392 919 156 515 73 683 357 289 436 131 20 60 248 284 431 391 328 364 321
258 476 1417 1956 2246 1763 1494 1200 1244 1307 1422 866 1560 1406 1874 1908 2058 2101 2114 1755 1639 1723 1204 1453 1389 1860 927 327 1075 761 620 591 57 0 31 189 656 579 523 584 510 463 538
205 381 1523 1796 2354 1891 2012 826 1877 1016 805 651 1182 928 1578 1901 1980 2169 2341 2272 1964 1631 2517 2109 1234 1829 1714 484 37 238 1420 1167 968 29 158 277 505 548 743 792 908 785 701
254 377 581 2174 2571 2202 2060 1843 1140 1796 650 595 626 2912 2946 3367 2019 1794 2391 2184 2283 1654 1833 1472 1713 2016 868 1072 56 9 89 0 332 844 698 532 475 499 737 960 595 574 1129
347 361 946 2256 2854 2822 2474 2000 2567 2094 1991 456 903 1535 1007 1631 1852 2204 2077 3028 2185 1925 2008 1985 2158 1788 3104 1554 1116 151 2 77 319 279 231 680 725 575 460 526 612 579 631
CIN
0 0 0 0 0 0 0 -1 -1 -2 -3 -2 -1 -1 0 0 0 0 0 0 0 0 -4 0 0 0 0 0 0 0 0 0 0 0 0 0 0 -2 -2 -4 -7 0 0
0 0 0 0 0 0 0 0 0 -3 -3 0 0 0 0 0 0 -2 0 0 0 -1 -7 0 0 0 0 0 0 0 0 -2 0 0 0 0 0 0 -1 -2 -1 0 0
0 -1 0 0 0 0 0 0 0 0 0 0 0 0 0 0 0 0 0 -1 0 0 0 0 0 0 0 0 0 0 0 -9 -3 -9 -4 -1 0 0 0 -1 0 0 0
0 0 0 -1 0 0 0 0 0 0 0 0 0 0 0 0 0 0 0 0 -1 0 0 0 0 -1 0 0 0 0 -2 -20 -5 -10 -4 -1 0 0 0 0 0 0 -1
0 0 0 -1 0 0 0 0 0 0 0 0 0 0 0 -1 0 -1 0 -1 0 0 -1 0 -1 0 0 0 0 -3 -19 -25 -5 -4 -12 -11 0 -1 0 0 -2 -1 -2
0 -1 -1 0 0 0 0 0 0 0 0 0 0 0 0 0 0 0 0 0 0 0 0 0 0 0 0 0 0 -13 -25 -26 -7 -6 -1 -1 0 0 0 0 0 -7 0
0 -4 0 0 0 0 0 0 0 0 0 0 0 0 0 0 0 0 0 0 0 0 -5 0 0 0 0 0 0 -24 -38 -28 -3 -14 -1 -1 0 0 0 0 0 0 0
-3 0 -2 0 0 0 0 0 0 0 0 0 0 0 0 0 0 0 0 0 0 0 -2 -2 -3 0 0 -1 -3 -34 -55 -20 -7 -5 -1 -1 0 0 0 0 0 -1 -3
0 0 0 0 0 0 0 0 0 0 0 0 0 0 0 0 0 0 0 0 0 -4 0 -4 -7 -5 -4 -1 -14 -40 -62 -47 -7 0 -2 0 -2 0 0 0 -4 0 0
-1 0 0 0 0 0 0 0 0 0 0 0 -2 -2 -7 -10 -19 -19 -6 0 0 -3 -3 -8 -12 -13 -9 -10 -28 -59 -60 -50 -1 -2 -4 -3 0 0 0 0 0 0 0
-1 0 0 0 0 -1 0 0 0 0 0 -3 -9 -17 -34 -3 -1 -1 -13 -5 -2 -5 -14 -23 -22 -9 -21 -32 -49 -60 -60 -2 -1 -3 -4 -4 0 0 0 0 0 0 0
-2 -1 -1 0 -1 0 0 -1 0 0 0 -1 -1 -4 -84 -20 -12 0 -9 -18 -16 -19 -30 -37 -16 -168 -14 -9 -15 -57 -8 -1 0 -2 -1 -2 0 0 0 0 0 0 0
0 0 0 0 0 -1 -4 0 0 -2 0 0 0 -2 -1 -1 -2 0 -11 -7 -14 -31 -5 -18 -33 -20 -9 -57 -29 -30 -2 -4 -1 -2 -8 0 -2 0 0 0 0 0 0
0 -1 -1 0 -1 -1 0 -6 -13 -1 0 0 0 -1 -4 -33 -33 -22 -26 0 -3 -126 -11 -2 -83 -1 -55 -137 -6 -24 -1 -2 0 -4 -3 -1 0 0 0 0 0 0 0
0 0 -3 -1 -1 -1 -2 -5 -1 0 -1 0 -1 0 -37 -30 -15 -8 -1 -125 -10 -22 -37 -6 0 -1 -2 -2 -32 -42 -4 -1 0 -1 -25 -12 -4 0 0 0 0 0 0
0 0 0 0 0 -1 -4 -2 -1 0 -10 -2 -19 -1 -3 -46 -10 -1 -5 -13 -75 -155 -109 -25 -2 -8 -3 -77 -10 -7 -12 -1 -9 -5 -12 -17 -28 -29 -17 -4 0 0 0
0 0 0 0 0 0 -1 0 0 -1 -5 -13 -18 -5 0 -2 0 -3 -10 -129 -2 -2 -7 -5 -2 -32 -10 -26 -6 -7 -2 -2 0 -7 -28 -19 -26 -39 -42 -49 -51 -46 -42
-3 -1 -3 -1 0 0 0 -1 0 -1 -1 -30 -5 0 0 0 0 -4 -1 -10 -5 -76 -60 -112 -11 -33 -10 -2 -21 -26 -37 -1 0 -1 -4 -22 -13 -6 -29 -29 -25 -23 -13
-19 -10 -8 -1 0 0 0 0 -2 -1 -18 -27 -9 -17 -1 0 -2 -6 -3 -15 -12 -5 -16 -20 -144 -39 -11 -11 -12 -23 -5 -8 -7 -1 -1 -1 -8 -54 -13 -34 -36 -31 -32
-23 -15 -4 0 0 0 0 0 0 0 -3 -17 -30 -29 -6 -1 0 -2 -29 -2 -2 -2 -55 -25 0 -10 -5 -55 -6 -8 -11 -6 -29 -5 -7 -11 -4 -1 -15 -6 -27 -29 -41
-21 -11 -3 0 0 0 0 0 0 0 0 -3 -3 0 0 0 0 -4 -12 -5 -6 -2 -50 -5 -1 -4 -6 -70 -19 -36 -44 -43 -3 -32 -71 -39 -56 -37 -38 -5 -6 -2 -26
-23 -9 0 0 0 0 -1 0 0 0 -1 -1 0 0 -1 0 0 0 -1 -4 -6 -3 0 -1 -9 -45 -64 -14 -89 -27 -23 -3 -28 -39 -79 -96 -19 -11 -2 -19 -44 -62 -79
-17 -11 0 0 0 0 0 0 0 0 0 -1 -2 0 -1 0 0 0 -1 -18 -5 -4 -7 -1 -3 -3 -34 -1 -1 -26 -22 -19 -30 0 -149 -40 -5 -1 -3 -9 -27 -73 -76
-46 -24 0 0 0 0 0 -1 0 0 0 0 0 0 -1 0 0 0 0 0 -9 -1 -14 0 0 -1 -23 -2 -1 -7 -11 -12 -3 -70 -17 -4 -2 -5 -2 -12 -10 -31 -70
-36 -40 -19 0 0 0 0 -1 -1 -1 0 -1 -1 -1 -1 0 0 0 0 -1 0 -3 -1 -3 -1 -5 -1 -2 0 -29 -54 0 -8 -5 -3 0 -4 -17 -13 -3 -48 -55 -25
-22 -26 -6 0 0 0 0 -7 0 -1 -2 -1 0 0 0 0 0 0 0 0 0 0 0 0 0 -1 -3 -2 -1 -93 -1 -46 -35 -3 -16 -9 -10 -10 -42 -54 -72 -103 -99
Wind_Speed
13 15 16 13 12 10 9 7 7 6 6 6 5 4 5 5 4 3 1 1 3 4 3 4 3 3 4 6 8 10 12 13 12 10 10 10 8 7 4 2 11 10 8
14 14 14 13 9 6 6 5 5 6 5 5 6 5 5 5 3 2 1 2 4 5 5 4 4 3 5 6 8 7 8 12 7 9 11 11 10 9 8 10 12 9 9
15 11 11 8 6 5 5 5 5 6 7 8 6 5 5 3 4 4 4 5 6 6 7 7 6 6 6 7 5 3 5 4 6 3 2 8 8 9 10 10 11 11 10
14 13 11 6 5 5 4 4 4 4 6 6 5 5 4 6 6 6 4 4 5 6 6 6 6 8 9 7 6 8 8 5 3 3 8 5 7 9 9 9 9 10 11
16 12 8 5 4 4 3 3 2 3 3 3 2 4 5 5 5 6 6 5 5 7 6 7 7 5 5 8 8 6 4 7 7 6 14 10 7 7 7 9 9 8 8
15 13 8 5 3 3 4 3 2 2 1 1 2 3 4 4 5 5 5 5 4 3 4 5 4 2 1 2 4 2 6 11 15 5 3 10 11 6 9 10 11 9 8
14 11 8 4 5 4 2 2 2 1 1 2 3 3 4 3 4 6 5 5 4 5 4 6 7 5 4 4 3 8 11 12 6 3 7 10 7 9 9 10 10 8 8
14 12 7 4 4 5 3 2 1 2 1 1 2 3 1 3 5 7 9 9 9 9 10 11 8 6 6 6 6 9 15 15 3 2 3 7 4 10 11 11 11 9 9
12 13 7 6 3 3 2 1 1 1 2 3 2 4 0 3 6 6 8 9 11 13 10 9 8 5 5 6 8 9 14 14 3 1 6 6 5 9 9 9 9 9 9
9 12 7 7 6 5 1 3 3 4 5 5 4 4 3 9 11 11 13 8 10 14 11 10 10 10 9 9 11 15 17 16 9 7 6 3 6 7 7 8 6 8 9
nan 8 9 8 5 2 3 6 5 6 6 4 7 9 14 10 10 10 5 8 9 11 12 15 16 15 15 14 16 19 19 7 6 1 4 2 4 6 6 6 7 7 7
nan 8 7 6 2 2 4 6 7 6 7 10 6 14 17 6 11 2 5 7 8 10 12 17 12 14 19 9 14 17 13 5 7 1 2 2 2 4 4 2 4 6 7
nan 4 nan 5 3 6 11 11 11 11 10 10 9 13 9 9 7 5 7 11 11 16 13 15 10 11 8 14 11 14 7 10 8 3 4 4 7 7 7 7 7 6 7
nan nan nan 4 8 9 9 14 13 10 11 10 9 12 11 12 5 9 9 7 2 9 11 10 11 7 15 12 3 11 7 7 5 4 5 5 8 8 10 10 7 7 10
nan nan 7 4 10 14 15 18 12 11 10 4 5 10 8 11 9 5 3 11 11 5 11 4 3 4 8 3 13 11 4 7 7 5 6 7 8 7 8 9 10 12 14
nan nan 8 3 11 12 16 17 13 11 13 8 8 3 10 9 5 3 8 7 4 8 8 6 5 3 8 8 5 9 12 5 10 10 7 9 11 10 10 10 9 10 12
nan nan 7 5 11 10 15 12 12 11 5 9 7 3 10 8 6 8 6 7 5 5 8 9 7 nan 4 7 8 10 6 4 4 8 6 10 10 13 13 13 14 14 14
nan nan 5 7 9 8 7 10 11 8 8 7 8 6 6 7 5 2 10 8 9 10 9 10 10 13 6 5 9 9 8 3 6 7 6 11 12 11 15 17 16 17 19
nan nan 4 9 9 7 6 7 11 9 14 10 9 7 3 2 4 13 7 10 6 15 7 7 nan 12 2 nan 6 9 6 6 10 3 6 11 11 14 15 16 20 22 25
nan 6 3 10 11 8 7 10 10 7 14 9 9 2 4 7 6 15 8 10 18 11 13 9 6 6 9 12 16 5 7 5 nan 7 8 10 7 16 11 15 21 23 27
nan 7 3 7 13 9 9 6 7 6 7 10 10 3 4 7 7 15 11 10 17 18 18 10 7 7 nan 12 15 nan 7 nan 8 10 nan 9 nan 18 nan 16 24 17 21
9 6 5 8 14 9 11 10 9 11 6 10 10 5 9 7 6 11 15 12 12 12 13 15 9 16 12 8 nan 9 9 8 5 10 nan nan 14 14 14 17 13 17 18
10 5 6 9 13 11 8 10 11 11 13 9 5 6 8 7 7 14 11 8 11 17 10 11 14 15 10 9 13 9 9 7 nan nan nan 18 10 17 12 13 16 15 16
10 7 9 10 12 12 8 7 6 8 9 8 9 6 3 9 8 8 8 8 11 11 11 10 10 13 12 8 nan 11 5 12 12 nan 12 12 14 16 14 17 16 16 14
12 10 9 12 13 11 9 11 9 10 8 7 9 8 10 6 10 10 8 7 5 10 6 8 6 13 12 13 nan nan nan nan 10 14 10 9 13 13 13 15 12 11 14
13 14 11 13 13 11 9 7 8 6 12 9 9 7 6 5 5 7 5 2 4 6 4 5 7 7 12 13 14 4 nan nan 5 9 9 7 4 6 9 10 10 10 9
Wind_Direction
6 7 27 23 38 40 39 52 60 85 77 55 86 107 105 102 92 86 248 1 277 247 235 229 233 237 274 276 275 264 257 255 252 253 244 233 225 222 198 355 336 284 300
356 355 16 10 29 30 34 54 71 90 82 84 95 98 105 91 105 84 311 295 265 265 267 270 269 276 286 296 281 269 266 273 240 255 259 241 227 227 245 256 258 291 288
350 333 6 15 25 27 42 63 71 69 80 79 87 95 91 67 22 340 331 330 287 272 272 265 270 278 278 279 275 230 259 276 272 206 212 199 231 245 266 277 288 298 291
338 356 345 6 19 13 44 67 80 79 80 77 70 66 55 25 358 335 353 291 297 285 274 271 266 260 269 273 248 245 194 175 267 125 199 176 227 256 279 290 299 301 301
340 324 307 351 355 10 37 73 103 68 61 78 47 33 30 19 352 7 342 320 298 283 276 264 243 249 244 252 262 259 213 171 205 163 192 158 218 259 282 308 310 282 270
327 299 320 336 337 346 30 63 111 96 295 327 339 14 31 21 5 356 338 323 305 286 256 233 205 179 340 303 270 128 154 144 136 157 95 198 224 268 268 270 276 283 301
303 306 325 344 339 352 9 87 58 37 296 342 16 23 44 41 48 24 12 31 59 108 138 127 121 124 64 41 95 99 97 104 131 129 225 215 259 263 280 284 295 299 305
298 321 315 296 331 1 341 49 39 28 11 50 81 65 59 55 57 47 57 70 86 106 108 113 104 81 62 55 64 90 101 109 281 193 271 239 265 281 288 297 294 300 295
323 291 322 317 320 356 317 96 162 197 152 172 115 81 39 73 71 86 88 79 78 76 76 75 68 35 26 25 40 74 88 97 137 227 306 279 289 281 292 306 307 306 308
320 314 357 324 358 18 333 147 196 185 153 151 120 87 38 70 65 67 55 78 60 62 63 62 49 27 19 30 42 55 57 47 3 347 248 254 288 297 301 298 291 292 286
nan 346 346 346 11 296 209 166 166 163 144 113 85 76 64 83 60 53 121 77 59 61 59 57 47 22 10 17 34 46 59 52 39 309 259 316 303 297 305 299 309 307 308
nan 347 352 299 329 113 147 125 142 127 98 100 101 84 92 155 130 112 63 45 38 37 56 63 42 124 33 38 39 55 72 61 66 38 141 46 339 346 345 358 29 9 358
nan 46 nan 256 109 115 200 121 132 129 130 133 110 113 144 134 106 71 50 38 28 31 37 52 101 60 84 73 60 63 51 41 56 81 73 48 46 21 17 16 21 28 36
nan nan nan 247 136 142 149 137 134 138 126 120 109 129 120 125 63 100 84 38 20 82 38 59 36 31 28 79 85 56 84 61 60 45 42 48 58 52 50 49 51 40 43
nan nan 260 227 146 169 143 143 137 156 110 184 116 105 160 120 118 95 80 106 78 104 48 38 25 121 102 198 113 127 56 131 120 28 46 32 51 46 52 50 42 39 38
nan nan 256 208 146 167 151 148 165 138 169 133 117 116 127 146 91 78 93 101 256 90 211 145 149 72 104 40 170 108 77 65 104 137 32 42 34 35 47 44 49 44 58
nan nan 259 194 155 166 161 156 142 150 149 129 156 136 114 102 118 93 90 144 101 51 355 70 106 nan 38 110 119 103 109 83 78 44 57 56 39 39 34 38 45 49 57
nan nan 256 174 172 164 159 145 135 137 130 137 130 110 94 118 112 119 97 76 88 116 79 64 107 129 119 103 93 134 97 140 82 91 53 48 60 45 45 42 56 64 68
nan nan 248 169 188 171 173 141 144 171 144 143 138 148 62 84 104 109 115 94 110 89 92 52 nan 104 137 nan 95 139 99 96 84 70 96 78 64 69 80 51 55 63 67
nan 262 232 184 199 183 191 144 144 178 140 148 123 153 44 92 96 98 118 112 97 94 137 110 126 158 147 137 126 77 123 102 nan 89 77 75 86 85 75 69 66 66 60
nan 284 244 197 209 192 183 153 151 183 150 126 110 142 82 105 103 109 128 101 99 98 71 72 88 118 nan 132 125 nan 139 nan 82 94 nan 106 nan 90 nan 91 90 65 50
306 282 246 204 208 183 179 169 157 147 147 123 113 118 104 106 113 102 113 102 113 112 102 103 118 101 123 101 nan 110 88 92 86 97 nan nan 117 97 73 73 80 65 62
302 292 241 212 213 209 183 182 172 155 151 137 138 118 111 116 111 115 113 135 102 107 107 102 105 113 92 47 64 85 89 86 nan nan nan 105 107 92 93 62 56 35 35
287 273 232 215 213 219 187 200 186 171 154 159 132 121 139 113 117 109 109 111 104 106 89 91 100 114 88 82 nan 64 103 101 127 nan 103 105 83 73 49 60 17 24 25
259 263 238 228 212 217 219 172 212 162 175 160 145 216 148 151 125 121 110 107 110 101 120 114 124 112 117 123 nan nan nan nan 107 127 104 57 58 58 37 36 58 35 13
273 264 247 242 225 207 229 182 204 203 153 161 166 200 160 162 144 124 112 113 89 103 85 79 89 95 129 133 149 146 nan nan 92 101 105 75 99 32 44 40 29 47 32